星链-4098 (STARLINK-4098 )

导读

STARLINK-4098是美国SpaceX公司星链星座中的一颗低轨卫星互联网卫星,于2022年7月17日发射升空。作为星链全球组网计划的组成部分,它运行在近地轨道,旨在为全球提供高速低延迟的互联网接入服务,重点覆盖偏远、基础设施匮乏地区。星链计划计划部署数万颗卫星,STARLINK-4098的入轨进一步推进了星座组网进程,不过星链的大规模部署也引发了太空交通安全、天文观测干扰等领域的争议。

基本信息
目录编号:
53153
目录名称:
STARLINK-4098
国际标识:
2022-083X
轨道中心:
EARTH
卫星名称:
星链-4098
卫星全名:
星链-4098 (STARLINK-4098 )
卫星状态:
在轨 (已飞行1510 天)
发射日期:
2022-07-17 UTC
国别 :
美国 (US)
星等 :
--
轨道信息
数据来源 国际轨道数据
星历时间: 2026-09-04T12:00:02+0800
5小时前
查看轨道信息
半长轴: 6846.043km
偏心率: 0.000182
轨道倾角: 53.161°
近地点辐角 77.360°
升交点赤经 79.775°
平近点角 87.248°
近地点: 466.66km
远地点: 469.152km
周期: 93.955分钟
每日圈数: 15.326512
详细信息
固有亮度:
5
最大亮度:
2.5
卫星平台:
Starlink v1.5
覆盖范围:
全球
运营商:
太空探索技术公司
运营商所在国:
美国
制造商(研发单位):
太空探索技术公司
制造商所在国:
美国
使用方式:
暂无
卫星简介
星链(Starlink)计划是由太空探索技术公司(SpaceX)提出的一个巨型低轨卫星互联网星座项目,计划在2019年至2024年间在太空搭建由约1.2万颗卫星组成的“星链”网络,其中1584颗将部署在地球上空550千米处的近地轨道,并从2020年开始工作。该卫星仍在工作。
2D轨道图
3D轨道图
轨道高度分析图
轨道倾角分析图
轨道综合分析图
查看轨道综合分析图
交会数据列表
事件ID 空间交会对象 最接近时刻(TCA) 交会距离 交会风险概率(CRP) 交会风险指数(CRI) 操作
CDM_260905-052104-939805-315321
OBJECT D (49398)
2026-09-05T
05:21:00+0000
0.933 km
远距离
3.34568E-5 中风险 0.65
CDM_260903-040005-315305-901221
2026-09-03T
04:00:23+0000
2.101 km
极远距离
1.993254E-6 低风险 0.41
CDM_260905-135205-198805-315321
2026-09-05T
13:52:38+0000
2.313 km
极远距离
1.720755E-6 低风险 0.4
CDM_260905-055605-196205-315321
2026-09-05T
05:56:34+0000
2.627 km
极远距离
1.436003E-6 低风险 0.38
CDM_260905-065504-939805-315321
OBJECT D (49398)
2026-09-05T
06:55:00+0000
2.987 km
极远距离
1.313442E-6 低风险 0.37
CDM_260904-160805-315306-349721
2026-09-04T
16:08:55+0000
2.752 km
极远距离
8.254898E-7 极低风险 0.33